This demonstration page uses our WeatherBlox Daily Observations layout. Learn more.

Left ArrowRight Arrow

34.02893, -84.19858

Hourly Observations for June 24, 2020

Temp ( °F °C ) Dew Point ( °F °C ) Humidity (%) Winds ( mph kmh ) Pressure ( in mb ) Visibility ( mi km ) Precip ( " mm )
12:53 am 00:53 Clear 74 23.3 65 18.3 74 74 W 8 13 29.89 1012 10 16 0.00 0.00
1:53 am 01:53 Clear 73 22.8 66 18.9 79 79 WSW 9 15 29.89 1012 10 16 0.00 0.00
2:53 am 02:53 Clear 72 22.2 67 19.4 84 84 WSW 9 15 29.89 1012 10 16 0.00 0.00
3:53 am 03:53 Clear 71 21.7 67 19.4 87 87 W 7 11 29.89 1012 10 16 0.00 0.00
4:53 am 04:53 Clear 70 21.1 66 18.9 87 87 W 7 11 29.89 1012 10 16 0.00 0.00
5:53 am 05:53 Clear 70 21.1 66 18.9 87 87 W 7 11 29.89 1012 10 16 0.00 0.00
6:53 am 06:53 Sunny 70 21.1 66 18.9 87 87 WNW 7 11 29.91 1013 10 16 0.00 0.00
7:53 am 07:53 Sunny 70 21.1 66 18.9 87 87 WNW 7 11 29.93 1013 10 16 0.00 0.00
8:53 am 08:53 Mostly Cloudy 73 22.8 66 18.9 79 79 WNW 9 15 29.93 1014 10 16 0.00 0.00
9:53 am 09:53 Partly Cloudy 74 23.3 67 19.4 79 79 VRB 7 11 29.94 1014 10 16 0.00 0.00
10:53 am 10:53 Partly Cloudy 75 23.9 67 19.4 76 76 W 7 11 29.94 1014 10 16 0.00 0.00
11:53 am 11:53 Mostly Cloudy 76 24.4 68 20 77 77 WSW 6 9 29.95 1014 10 16 0.00 0.00
12:53 pm 12:53 Mostly Cloudy 78 25.6 68 20 71 71 SW 8 13 29.95 1014 10 16 0.00 0.00
1:53 pm 13:53 Mostly Cloudy 81 27.2 69 20.6 67 67 WSW 8 13 29.94 1014 10 16 0.00 0.00
2:29 pm 14:29 Mostly Cloudy with Nearby Thunderstorms 81 27.2 68 20 65 65 W 14 22 29.95 1014 10 16 0.00 0.00
2:44 pm 14:44 Mostly Cloudy with Nearby Thunderstorms 73 22.8 66 18.9 79 79 N 13 20 29.97 1015 10 16 0.00 0.00
2:53 pm 14:53 Cloudy with Nearby Thunderstorms 73 22.8 67 19.4 81 81 NNW 7 11 29.97 1015 10 16 0.00 0.00
3:02 pm 15:02 Cloudy 74 23.3 67 19.4 79 79 NW 12 19 29.97 1015 10 16 0.00 0.00
3:53 pm 15:53 Mostly Cloudy 76 24.4 69 20.6 79 79 NNW 6 9 29.96 1015 10 16 0.00 0.00
4:53 pm 16:53 Partly Cloudy 75 23.9 68 20 79 79 NW 8 13 29.94 1014 10 16 0.00 0.00
5:53 pm 17:53 Cloudy with Light Rain 75 23.9 70 21.1 84 84 W 5 7 29.95 1014 10 16 0.00 0.00
6:22 pm 18:22 Cloudy with Rain 74 23.3 71 21.7 91 91 W 7 11 29.97 1015 2 3 0.06 1.52
6:45 pm 18:45 Cloudy with Light Rain 72 22.2 69 20.6 91 91 WNW 7 11 29.98 1015 3 5 0.22 5.59
6:53 pm 18:53 Mostly Cloudy with Light Rain 72 22.2 69 20.6 91 91 W 5 7 29.97 1015 10 16 0.22 5.59
7:53 pm 19:53 Cloudy with Light Rain 71 21.7 70 21.1 96 96 SSW 5 7 29.98 1015 10 16 0.00 0.00
8:53 pm 20:53 Partly Cloudy 71 21.7 70 21.1 96 96 Calm 29.98 1015 10 16 0.02 0.51
9:53 pm 21:53 Cloudy with Light Rain 70 21.1 70 21.1 100 100 SSE 3 6 29.97 1015 10 16 0.01 0.25
10:53 pm 22:53 Mostly Cloudy 69 20.6 69 20.6 100 100 Calm 29.95 1014 10 16 0.02 0.51
11:53 pm 23:53 Cloudy with Light Rain 69 20.6 69 20.6 100 100 SE 5 7 29.96 1015 8 13 0.04 1.02

Powered by AerisWeather